Greeley, CO

3:30 AM MDT on April 25, 2017 (GMT -0600)
Greeley-Weld County

Weather History for KGXY - February, 2013

Change the Weather History Date:

Saturday, February 9, 2013

  Actual Average Record
Temperature  
Mean Temperature 27 °F -  
Max Temperature 39 °F - 68 °F (2015)
Min Temperature 15 °F - -14 °F (2001)
Degree Days  
Heating Degree Days 38    
Month to date heating degree days  
Cooling Degree Days 0    
Month to date cooling degree days  
Moisture  
Dew Point 17 °F    
Average Humidity 64    
Maximum Humidity 73    
Minimum Humidity 52    
Precipitation  
Precipitation 0.00 in - 0.06 in (1985)
Sea Level Pressure  
Sea Level Pressure 29.61 in    
Wind  
Wind Speed 7 mph (North)    
Max Wind Speed 22 mph    
Max Gust Speed 28 mph    
Visibility 10 miles    
Events      
T = Trace of Precipitation, MM = Missing Value Source: NWS Daily Summary

Daily Weather History Graph

Daily Weather History Graph

Search for Another Location

Airport or City:

Trip Planner

Search our weather history database for the weather conditions in past years. The results will help you decide how hot, cold, wet, or windy it might be!

Date:

Astronomy

Feb. 09, 2013 Rise Set
Actual Time 6:59 AM MST 5:26 PM MST
Civil Twilight 6:30 AM MST 5:55 PM MST
Nautical Twilight 5:58 AM MST 6:27 PM MST
Astronomical Twilight 5:26 AM MST 6:59 PM MST
Moon 6:12 AM MST (2/9) 5:12 PM MST (2/9)
Length of Visible Light 11h 24m
Length of Day
10h 27m
Waning Crescent, 0% of the Moon is Illuminated
Feb 9
Waning Crescent
Feb 10
New
Feb 17
First Quarter
Feb 25
Full
Mar 4
Last Quarter

Hourly Weather History & Observations

Time (MST) Temp. Windchill Dew Point Humidity Pressure Visibility Wind Dir Wind Speed Gust Speed Precip Events Conditions
12:15 AM 19.4 °F 12.8 °F 10.4 °F 68% 29.70 in 10.0 mi NW 4.6 mph - N/A   Clear
12:35 AM 17.6 °F 12.3 °F 8.6 °F 68% 29.69 in 10.0 mi North 3.5 mph - N/A   Clear
12:55 AM 17.6 °F 9.3 °F 8.6 °F 68% 29.69 in 10.0 mi NNW 5.8 mph - N/A   Clear
1:15 AM 17.6 °F - 6.8 °F 63% 29.69 in 10.0 mi Calm Calm - N/A   Clear
1:35 AM 17.6 °F - 8.6 °F 68% 29.69 in 10.0 mi Calm Calm - N/A   Clear
1:55 AM 17.6 °F 12.3 °F 8.6 °F 68% 29.69 in 10.0 mi North 3.5 mph - N/A   Clear
2:15 AM 17.6 °F 10.7 °F 6.8 °F 63% 29.69 in 10.0 mi NNW 4.6 mph - N/A   Clear
2:35 AM 17.6 °F 8.2 °F 8.6 °F 68% 29.68 in 10.0 mi North 6.9 mph - N/A   Clear
2:55 AM 17.6 °F - 8.6 °F 68% 29.69 in 10.0 mi Calm Calm - N/A   Clear
3:15 AM 15.8 °F - 6.8 °F 68% 29.68 in 10.0 mi Calm Calm - N/A   Clear
3:35 AM 17.6 °F - 6.8 °F 63% 29.68 in 10.0 mi Calm Calm - N/A   Clear
4:15 AM 17.6 °F 12.3 °F 8.6 °F 68% 29.69 in 10.0 mi SW 3.5 mph - N/A   Clear
4:35 AM 17.6 °F - 10.4 °F 73% 29.68 in 10.0 mi Calm Calm - N/A   Clear
4:55 AM 17.6 °F - 10.4 °F 73% 29.68 in 10.0 mi Calm Calm - N/A   Clear
5:15 AM 19.4 °F - 10.4 °F 68% 29.68 in 10.0 mi Calm Calm - N/A   Clear
5:35 AM 19.4 °F - 10.4 °F 68% 29.68 in 10.0 mi Calm Calm - N/A   Clear
5:55 AM 21.2 °F - 12.2 °F 68% 29.68 in 10.0 mi Calm Calm - N/A   Clear
6:15 AM 17.6 °F - 10.4 °F 73% 29.69 in 10.0 mi Calm Calm - N/A   Clear
6:55 AM 17.6 °F 12.3 °F 8.6 °F 68% 29.69 in 10.0 mi SW 3.5 mph - N/A   Clear
7:15 AM 19.4 °F 14.3 °F 10.4 °F 68% 29.69 in 10.0 mi West 3.5 mph - N/A   Clear
7:35 AM 17.6 °F 9.3 °F 10.4 °F 73% 29.69 in 10.0 mi WNW 5.8 mph - N/A   Clear
7:55 AM 24.8 °F 19.1 °F 15.8 °F 69% 29.70 in 10.0 mi WNW 4.6 mph - N/A   Clear
8:15 AM 28.4 °F - 17.6 °F 64% 29.70 in 10.0 mi Calm Calm - N/A   Clear
8:55 AM 30.2 °F 20.2 °F 19.4 °F 64% 29.68 in 8.0 mi NNE 12.7 mph - N/A   Mostly Cloudy
9:15 AM 32.0 °F 22.1 °F 21.2 °F 64% 29.68 in 10.0 mi North 13.8 mph - N/A   Scattered Clouds
9:35 AM 32.0 °F 23.0 °F 21.2 °F 64% 29.67 in 5.0 mi North 11.5 mph - N/A   Partly Cloudy
9:55 AM 33.8 °F 24.8 °F 21.2 °F 60% 29.66 in 10.0 mi North 12.7 mph 18.4 mph N/A   Scattered Clouds
10:15 AM 33.8 °F 24.3 °F 21.2 °F 60% 29.65 in 10.0 mi North 13.8 mph 17.3 mph N/A   Scattered Clouds
10:35 AM 33.8 °F 25.3 °F 21.2 °F 60% 29.64 in 10.0 mi North 11.5 mph 19.6 mph N/A   Mostly Cloudy
10:55 AM 33.8 °F 24.8 °F 21.2 °F 60% 29.63 in 8.0 mi NNE 12.7 mph - N/A   Overcast
11:15 AM 35.6 °F 28.0 °F 23.0 °F 60% 29.61 in 5.0 mi NE 10.4 mph - N/A   Overcast
11:35 AM 35.6 °F 28.0 °F 21.2 °F 56% 29.60 in 10.0 mi North 10.4 mph 17.3 mph N/A   Overcast
11:55 AM 37.4 °F 31.4 °F 21.2 °F 52% 29.58 in 10.0 mi NE 8.1 mph - N/A   Overcast
12:15 PM 37.4 °F 29.8 °F 21.2 °F 52% 29.56 in 8.0 mi NNE 11.5 mph 16.1 mph N/A   Overcast
12:35 PM 39.2 °F 34.2 °F 23.0 °F 52% 29.56 in 10.0 mi NE 6.9 mph - N/A   Mostly Cloudy
12:55 PM 37.4 °F 30.8 °F 21.2 °F 52% 29.55 in 9.0 mi NE 9.2 mph - N/A   Mostly Cloudy
1:15 PM 37.4 °F 32.1 °F 21.2 °F 52% 29.56 in 10.0 mi North 6.9 mph - N/A   Overcast
1:35 PM 37.4 °F 30.8 °F 21.2 °F 52% 29.55 in 10.0 mi NE 9.2 mph - N/A   Overcast
1:55 PM 37.4 °F 30.8 °F 21.2 °F 52% 29.55 in 9.0 mi NE 9.2 mph - N/A   Overcast
2:15 PM 37.4 °F 30.8 °F 21.2 °F 52% 29.55 in 10.0 mi ENE 9.2 mph - N/A   Overcast
2:35 PM 37.4 °F 30.8 °F 21.2 °F 52% 29.55 in 10.0 mi NE 9.2 mph - N/A   Overcast
2:55 PM 35.6 °F 28.0 °F 23.0 °F 60% 29.54 in 10.0 mi NE 10.4 mph - N/A   Overcast
3:15 PM 33.8 °F 25.8 °F 24.8 °F 70% 29.55 in 10.0 mi ENE 10.4 mph - N/A   Overcast
3:35 PM 35.6 °F 28.6 °F 24.8 °F 65% 29.56 in 10.0 mi NE 9.2 mph - N/A   Overcast
3:55 PM 33.8 °F 27.0 °F 23.0 °F 65% 29.56 in 10.0 mi NE 8.1 mph - N/A   Overcast
4:15 PM 33.8 °F 27.7 °F 21.2 °F 60% 29.56 in 8.0 mi NNE 6.9 mph - N/A   Overcast
4:35 PM 33.8 °F 27.7 °F 21.2 °F 60% 29.55 in 10.0 mi NNE 6.9 mph - N/A   Overcast
4:55 PM 33.8 °F 24.3 °F 21.2 °F 60% 29.54 in 10.0 mi North 13.8 mph - N/A   Overcast
5:15 PM 33.8 °F 27.0 °F 21.2 °F 60% 29.53 in 9.0 mi North 8.1 mph - N/A   Mostly Cloudy
5:35 PM 30.2 °F 20.8 °F 19.4 °F 64% 29.54 in 10.0 mi North 11.5 mph 16.1 mph N/A   Mostly Cloudy
6:35 PM 30.2 °F 20.8 °F 19.4 °F 64% 29.55 in 10.0 mi North 11.5 mph - N/A   Overcast
7:15 PM 28.4 °F 18.5 °F 17.6 °F 64% 29.56 in 10.0 mi North 11.5 mph - N/A   Overcast
7:35 PM 26.6 °F 14.3 °F 17.6 °F 69% 29.55 in 10.0 mi North 16.1 mph 21.9 mph N/A   Scattered Clouds
7:55 PM 26.6 °F 14.3 °F 17.6 °F 69% 29.55 in 10.0 mi North 16.1 mph - N/A   Clear
8:15 PM 26.6 °F 15.7 °F 17.6 °F 69% 29.55 in 10.0 mi North 12.7 mph - N/A   Clear
8:35 PM 26.6 °F 17.5 °F 17.6 °F 69% 29.55 in 10.0 mi North 9.2 mph - N/A   Clear
8:55 PM 28.4 °F 15.8 °F 19.4 °F 69% 29.55 in 10.0 mi North 18.4 mph 23.0 mph N/A   Clear
9:15 PM 28.4 °F 15.4 °F 19.4 °F 69% 29.54 in 10.0 mi North 19.6 mph 26.5 mph N/A   Clear
9:35 PM 28.4 °F 14.7 °F 17.6 °F 64% 29.54 in 10.0 mi NNW 21.9 mph 27.6 mph N/A   Clear
9:55 PM 28.4 °F 15.8 °F 17.6 °F 64% 29.55 in 10.0 mi NNW 18.4 mph - N/A   Clear
10:15 PM 28.4 °F 15.4 °F 17.6 °F 64% 29.54 in 10.0 mi North 19.6 mph 24.2 mph N/A   Clear
10:35 PM 28.4 °F 15.8 °F 17.6 °F 64% 29.54 in 10.0 mi NNW 18.4 mph - N/A   Clear
10:55 PM 28.4 °F 17.0 °F 19.4 °F 69% 29.55 in 10.0 mi North 15.0 mph - N/A   Partly Cloudy
11:15 PM 28.4 °F 15.8 °F 19.4 °F 69% 29.56 in 10.0 mi North 18.4 mph 21.9 mph N/A   Mostly Cloudy
11:35 PM 28.4 °F 17.0 °F 19.4 °F 69% 29.57 in 10.0 mi North 15.0 mph - N/A   Overcast
11:55 PM 26.6 °F 14.7 °F 17.6 °F 69% 29.57 in 10.0 mi North 15.0 mph - N/A   Mostly Cloudy